Time,TemperatureF,DewpointF,PressureIn,WindDirection,WindDirectionDegrees,WindSpeedMPH,WindSpeedGustMPH,Humidity,HourlyPrecipIn,Conditions,Clouds,dailyrainin,SolarRadiationWatts/m^2,SoftwareType,DateUTC
2013-01-19 00:12:00,71.0,61.0,29.95,North,355,9.0,17.0,70,0.00,,,0.00,0.000000,,2013-01-19 10:12:00,
2013-01-19 00:22:00,71.0,61.0,29.95,North,355,9.0,17.0,70,0.00,,,0.00,0.000000,,2013-01-19 10:22:00,
2013-01-19 00:32:00,71.0,61.0,29.95,North,355,9.0,17.0,70,0.00,,,0.00,0.000000,,2013-01-19 10:32:00,
2013-01-19 00:42:00,71.0,61.0,29.95,North,355,9.0,17.0,70,0.00,,,0.00,0.000000,,2013-01-19 10:42:00,
2013-01-19 00:52:00,71.0,61.0,29.95,North,355,9.0,17.0,70,0.00,,,0.00,0.000000,,2013-01-19 10:52:00,
2013-01-19 02:52:00,71.0,58.0,29.93,NNW,345,9.0,20.0,64,0.00,,,0.00,0.000000,,2013-01-19 12:52:00,
2013-01-19 03:12:00,70.0,53.0,29.92,NW,326,12.0,23.0,55,0.00,,,-99.99,0.000000,,2013-01-19 13:12:00,
2013-01-19 03:22:00,70.0,53.0,29.92,NW,326,12.0,23.0,55,0.00,,,-99.99,0.000000,,2013-01-19 13:22:00,
2013-01-19 03:33:00,70.0,53.0,29.92,NW,326,12.0,23.0,55,0.00,,,-99.99,0.000000,,2013-01-19 13:33:00,
2013-01-19 03:42:00,70.0,53.0,29.92,NW,326,12.0,23.0,55,0.00,,,-99.99,0.000000,,2013-01-19 13:42:00,
2013-01-19 03:52:00,70.0,53.0,29.92,NW,326,12.0,23.0,55,0.00,,,-99.99,0.000000,,2013-01-19 13:52:00,
2013-01-19 04:12:00,71.0,51.0,29.93,NW,320,13.0,23.0,49,0.00,,,0.00,0.000000,,2013-01-19 14:12:00,
2013-01-19 04:22:00,71.0,51.0,29.93,NW,320,13.0,23.0,49,0.00,,,0.00,0.000000,,2013-01-19 14:22:00,
2013-01-19 04:33:00,71.0,51.0,29.93,NW,320,13.0,23.0,49,0.00,,,0.00,0.000000,,2013-01-19 14:33:00,
2013-01-19 04:42:00,71.0,51.0,29.93,NW,320,13.0,23.0,49,0.00,,,0.00,0.000000,,2013-01-19 14:42:00,
2013-01-19 04:52:00,71.0,51.0,29.93,NW,320,13.0,23.0,49,0.00,,,0.00,0.000000,,2013-01-19 14:52:00,
2013-01-19 05:12:00,70.0,53.0,29.93,NW,322,11.0,21.0,54,0.00,,,0.00,0.000000,,2013-01-19 15:12:00,
2013-01-19 05:22:00,70.0,53.0,29.93,NW,322,11.0,21.0,54,0.00,,,0.00,0.000000,,2013-01-19 15:22:00,
2013-01-19 05:33:00,70.0,53.0,29.93,NW,322,11.0,21.0,54,0.00,,,0.00,0.000000,,2013-01-19 15:33:00,
2013-01-19 05:42:00,70.0,53.0,29.93,NW,322,11.0,21.0,54,0.00,,,0.00,0.000000,,2013-01-19 15:42:00,
2013-01-19 05:52:00,70.0,53.0,29.93,NW,322,11.0,21.0,54,0.00,,,0.00,0.000000,,2013-01-19 15:52:00,
2013-01-19 05:53:00,70.0,54.0,29.95,NNW,342,13.0,23.0,56,0.00,,,0.00,0.000000,,2013-01-19 15:53:00,
2013-01-19 06:12:00,70.0,54.0,29.95,NNW,342,13.0,23.0,56,0.00,,,0.00,0.000000,,2013-01-19 16:12:00,
2013-01-19 06:23:00,70.0,54.0,29.95,NNW,342,13.0,23.0,56,0.00,,,0.00,0.000000,,2013-01-19 16:23:00,
2013-01-19 06:33:00,70.0,54.0,29.95,NNW,342,13.0,23.0,56,0.00,,,0.00,0.000000,,2013-01-19 16:33:00,
2013-01-19 06:42:00,70.0,54.0,29.95,NNW,342,13.0,23.0,56,0.00,,,0.00,0.000000,,2013-01-19 16:42:00,
2013-01-19 06:53:00,68.0,50.0,29.97,NNW,345,11.0,22.0,53,0.00,,,0.00,0.000000,,2013-01-19 16:53:00,
2013-01-19 07:27:00,68.0,50.0,29.97,NNW,345,11.0,22.0,53,0.00,,,0.00,0.000000,,2013-01-19 17:27:00,
2013-01-19 07:34:00,68.0,50.0,29.97,NNW,345,11.0,22.0,53,0.00,,,0.00,0.000000,,2013-01-19 17:34:00,
2013-01-19 07:53:00,71.0,52.0,29.99,NNW,332,13.0,24.0,52,0.00,,,0.00,54.000000,,2013-01-19 17:53:00,
2013-01-19 08:13:00,71.0,52.0,29.99,NNW,332,13.0,24.0,52,0.00,,,0.00,54.000000,,2013-01-19 18:13:00,
2013-01-19 08:25:00,71.0,52.0,29.99,NNW,332,13.0,24.0,52,0.00,,,0.00,54.000000,,2013-01-19 18:25:00,
2013-01-19 08:34:00,71.0,52.0,29.99,NNW,332,13.0,24.0,52,0.00,,,0.00,54.000000,,2013-01-19 18:34:00,
2013-01-19 08:44:00,71.0,52.0,29.99,NNW,332,13.0,24.0,52,0.00,,,0.00,54.000000,,2013-01-19 18:44:00,
2013-01-19 08:53:00,72.0,50.0,29.99,NNW,331,18.0,28.0,46,0.00,,,0.00,311.000000,,2013-01-19 18:53:00,
2013-01-19 09:17:00,72.0,50.0,29.99,NNW,331,18.0,28.0,46,0.00,,,0.00,311.000000,,2013-01-19 19:17:00,
2013-01-19 09:27:00,72.0,50.0,29.99,NNW,331,18.0,28.0,46,0.00,,,0.00,311.000000,,2013-01-19 19:27:00,
2013-01-19 09:37:00,72.0,50.0,29.99,NNW,331,18.0,28.0,46,0.00,,,0.00,311.000000,,2013-01-19 19:37:00,
2013-01-19 09:44:00,72.0,50.0,29.99,NNW,331,18.0,28.0,46,0.00,,,0.00,311.000000,,2013-01-19 19:44:00,
2013-01-19 10:24:00,74.0,50.0,30.00,NW,322,15.0,29.0,43,0.00,,,0.00,572.000000,,2013-01-19 20:24:00,
2013-01-19 10:35:00,74.0,50.0,30.00,NW,322,15.0,29.0,43,0.00,,,0.00,572.000000,,2013-01-19 20:35:00,
2013-01-19 10:44:00,74.0,50.0,30.00,NW,322,15.0,29.0,43,0.00,,,0.00,572.000000,,2013-01-19 20:44:00,
2013-01-19 11:14:00,75.0,51.0,30.00,NW,318,20.0,30.0,43,0.00,,,0.00,784.000000,,2013-01-19 21:14:00,
2013-01-19 11:24:00,75.0,51.0,30.00,NW,318,20.0,30.0,43,0.00,,,0.00,784.000000,,2013-01-19 21:24:00,
2013-01-19 11:38:00,75.0,51.0,30.00,NW,318,20.0,30.0,43,0.00,,,0.00,784.000000,,2013-01-19 21:38:00,
2013-01-19 11:46:00,75.0,51.0,30.00,NW,318,20.0,30.0,43,0.00,,,0.00,784.000000,,2013-01-19 21:46:00,
2013-01-19 11:52:00,75.0,51.0,30.00,NW,318,20.0,30.0,43,0.00,,,0.00,784.000000,,2013-01-19 21:52:00,
2013-01-19 11:53:00,78.0,52.0,29.99,NNW,337,19.0,33.0,41,0.00,,,-99.99,930.000000,,2013-01-19 21:53:00,
2013-01-19 12:15:00,78.0,52.0,29.99,NNW,337,19.0,33.0,41,0.00,,,-99.99,930.000000,,2013-01-19 22:15:00,
2013-01-19 12:25:00,78.0,52.0,29.99,NNW,337,19.0,33.0,41,0.00,,,-99.99,930.000000,,2013-01-19 22:25:00,
2013-01-19 12:34:00,78.0,52.0,29.99,NNW,337,19.0,33.0,41,0.00,,,-99.99,930.000000,,2013-01-19 22:34:00,
2013-01-19 12:45:00,78.0,52.0,29.99,NNW,337,19.0,33.0,41,0.00,,,-99.99,930.000000,,2013-01-19 22:45:00,
2013-01-19 12:53:00,79.0,52.0,29.95,NW,311,20.0,31.0,39,0.00,,,0.00,991.000000,,2013-01-19 22:53:00,
2013-01-19 13:14:00,79.0,52.0,29.95,NW,311,20.0,31.0,39,0.00,,,0.00,991.000000,,2013-01-19 23:14:00,
2013-01-19 13:24:00,79.0,52.0,29.95,NW,311,20.0,31.0,39,0.00,,,0.00,991.000000,,2013-01-19 23:24:00,
2013-01-19 13:33:00,79.0,52.0,29.95,NW,311,20.0,31.0,39,0.00,,,0.00,991.000000,,2013-01-19 23:33:00,
2013-01-19 13:44:00,79.0,52.0,29.95,NW,311,20.0,31.0,39,0.00,,,0.00,991.000000,,2013-01-19 23:44:00,
2013-01-19 13:53:00,79.0,51.0,29.92,NW,319,20.0,33.0,38,0.00,,,0.00,970.000000,,2013-01-19 23:53:00,
2013-01-19 14:14:00,79.0,51.0,29.92,NW,319,20.0,33.0,38,0.00,,,0.00,970.000000,,2013-01-20 00:14:00,
2013-01-19 14:24:00,79.0,51.0,29.92,NW,319,20.0,33.0,38,0.00,,,0.00,970.000000,,2013-01-20 00:24:00,
2013-01-19 14:34:00,79.0,51.0,29.92,NW,319,20.0,33.0,38,0.00,,,0.00,970.000000,,2013-01-20 00:34:00,
2013-01-19 14:44:00,79.0,51.0,29.92,NW,319,20.0,33.0,38,0.00,,,0.00,970.000000,,2013-01-20 00:44:00,
2013-01-19 14:53:00,78.0,50.0,29.92,NNW,335,18.0,32.0,38,0.00,,,0.00,860.000000,,2013-01-20 00:53:00,
2013-01-19 15:17:00,78.0,50.0,29.92,NNW,335,18.0,32.0,38,0.00,,,0.00,860.000000,,2013-01-20 01:17:00,
2013-01-19 15:24:00,78.0,50.0,29.92,NNW,335,18.0,32.0,38,0.00,,,0.00,860.000000,,2013-01-20 01:24:00,
2013-01-19 15:34:00,78.0,50.0,29.92,NNW,335,18.0,32.0,38,0.00,,,0.00,860.000000,,2013-01-20 01:34:00,
2013-01-19 15:44:00,78.0,50.0,29.92,NNW,335,18.0,32.0,38,0.00,,,0.00,860.000000,,2013-01-20 01:44:00,
2013-01-19 15:53:00,79.0,51.0,29.92,NW,325,19.0,29.0,38,0.00,,,0.00,680.000000,,2013-01-20 01:53:00,
2013-01-19 16:14:00,79.0,51.0,29.92,NW,325,19.0,29.0,38,0.00,,,0.00,680.000000,,2013-01-20 02:14:00,
2013-01-19 16:34:00,79.0,51.0,29.92,NW,325,19.0,29.0,38,0.00,,,0.00,680.000000,,2013-01-20 02:34:00,
2013-01-19 16:43:00,79.0,51.0,29.92,NW,325,19.0,29.0,38,0.00,,,0.00,680.000000,,2013-01-20 02:43:00,
2013-01-19 17:14:00,78.0,56.0,29.95,NW,321,18.0,28.0,46,0.00,,,0.00,438.000000,,2013-01-20 03:14:00,
2013-01-19 17:24:00,78.0,56.0,29.95,NW,321,18.0,28.0,46,0.00,,,0.00,438.000000,,2013-01-20 03:24:00,
2013-01-19 17:44:00,78.0,56.0,29.95,NW,321,18.0,28.0,46,0.00,,,0.00,438.000000,,2013-01-20 03:44:00,
2013-01-19 17:52:00,78.0,56.0,29.95,NW,321,18.0,28.0,46,0.00,,,0.00,438.000000,,2013-01-20 03:52:00,
2013-01-19 17:53:00,75.0,56.0,29.98,NW,323,19.0,31.0,51,0.00,,,0.00,174.000000,,2013-01-20 03:53:00,
2013-01-19 18:24:00,75.0,56.0,29.98,NW,323,19.0,31.0,51,0.00,,,0.00,174.000000,,2013-01-20 04:24:00,
2013-01-19 18:34:00,75.0,56.0,29.98,NW,323,19.0,31.0,51,0.00,,,0.00,174.000000,,2013-01-20 04:34:00,
2013-01-19 18:43:00,75.0,56.0,29.98,NW,323,19.0,31.0,51,0.00,,,0.00,174.000000,,2013-01-20 04:43:00,
2013-01-19 19:12:00,72.0,53.0,29.99,NW,324,16.0,31.0,52,0.00,,,0.00,6.000000,,2013-01-20 05:12:00,
2013-01-19 19:22:00,72.0,53.0,29.99,NW,324,16.0,31.0,52,0.00,,,0.00,6.000000,,2013-01-20 05:22:00,
2013-01-19 19:32:00,72.0,53.0,29.99,NW,324,16.0,31.0,52,0.00,,,0.00,6.000000,,2013-01-20 05:32:00,
2013-01-19 19:42:00,72.0,53.0,29.99,NW,324,16.0,31.0,52,0.00,,,0.00,6.000000,,2013-01-20 05:42:00,
2013-01-19 19:52:00,72.0,53.0,29.99,NW,324,16.0,31.0,52,0.00,,,0.00,6.000000,,2013-01-20 05:52:00,
2013-01-19 20:12:00,71.0,51.0,30.02,NNW,338,14.0,26.0,49,0.00,,,0.00,0.000000,,2013-01-20 06:12:00,
2013-01-19 20:22:00,71.0,51.0,30.02,NNW,338,14.0,26.0,49,0.00,,,0.00,0.000000,,2013-01-20 06:22:00,
2013-01-19 20:33:00,71.0,51.0,30.02,NNW,338,14.0,26.0,49,0.00,,,0.00,0.000000,,2013-01-20 06:33:00,
2013-01-19 20:42:00,71.0,51.0,30.02,NNW,338,14.0,26.0,49,0.00,,,0.00,0.000000,,2013-01-20 06:42:00,
2013-01-19 20:52:00,71.0,51.0,30.02,NNW,338,14.0,26.0,49,0.00,,,0.00,0.000000,,2013-01-20 06:52:00,
2013-01-19 21:12:00,70.0,52.0,30.04,NNW,341,9.0,21.0,53,0.00,,,0.00,0.000000,,2013-01-20 07:12:00,
2013-01-19 21:22:00,70.0,52.0,30.04,NNW,341,9.0,21.0,53,0.00,,,0.00,0.000000,,2013-01-20 07:22:00,
2013-01-19 21:32:00,70.0,52.0,30.04,NNW,341,9.0,21.0,53,0.00,,,0.00,0.000000,,2013-01-20 07:32:00,
2013-01-19 21:42:00,70.0,52.0,30.04,NNW,341,9.0,21.0,53,0.00,,,0.00,0.000000,,2013-01-20 07:42:00,
2013-01-19 21:52:00,70.0,52.0,30.04,NNW,341,9.0,21.0,53,0.00,,,0.00,0.000000,,2013-01-20 07:52:00,
2013-01-19 22:22:00,70.0,53.0,30.03,NNW,341,17.0,27.0,54,0.00,,,0.00,0.000000,,2013-01-20 08:22:00,
2013-01-19 22:32:00,70.0,53.0,30.03,NNW,341,17.0,27.0,54,0.00,,,0.00,0.000000,,2013-01-20 08:32:00,
2013-01-19 22:42:00,70.0,53.0,30.03,NNW,341,17.0,27.0,54,0.00,,,0.00,0.000000,,2013-01-20 08:42:00,
2013-01-19 22:52:00,70.0,53.0,30.03,NNW,341,17.0,27.0,54,0.00,,,0.00,0.000000,,2013-01-20 08:52:00,
2013-01-19 23:12:00,72.0,54.0,30.02,NW,317,19.0,31.0,53,0.00,,,0.00,0.000000,,2013-01-20 09:12:00,
2013-01-19 23:22:00,72.0,54.0,30.02,NW,317,19.0,31.0,53,0.00,,,0.00,0.000000,,2013-01-20 09:22:00,
2013-01-19 23:33:00,72.0,54.0,30.02,NW,317,19.0,31.0,53,0.00,,,0.00,0.000000,,2013-01-20 09:33:00,
2013-01-19 23:42:00,72.0,54.0,30.02,NW,317,19.0,31.0,53,0.00,,,0.00,0.000000,,2013-01-20 09:42:00,
2013-01-19 23:52:00,72.0,54.0,30.02,NW,317,19.0,31.0,53,0.00,,,0.00,0.000000,,2013-01-20 09:52:00,